Home > Weather > Asuncion > Past weeks

Flag for Paraguay Past Weather in Asuncion, Paraguay — Yesterday and Last 2 Weeks

Now
64 °F

Mostly cloudy.


Feels Like: 64 °F
Forecast: 61 / 67 °F
Wind: 7 mph from Southwest

Location: Asuncion / Aeropuerto

Current Time: May 27, 2016 at 12:19:17 PM

Latest Report: May 27, 2016 at 12:00 PM


Visibility: N/A

Pressure: 30.09 "Hg

Humidity: 88%

Dew Point: 61 °F

Location of AsuncionLocation

Past Weather in Asuncion — Graph

°F

Asuncion Temperature Yesterday

Maximum temperature yesterday: 66 °F (at 5:00 AM)
Minimum temperature yesterday: 63 °F (at 12:00 AM)
Average temperature yesterday: 65 °F

High & Low Weather Summary for the Past Weeks

 TemperatureHumidityPressure
High86 °F (May 15, 1:00 PM)100% (May 13, 11:00 PM)30.39 "Hg (May 13, 11:00 PM)
Low45 °F (May 23, 5:00 AM)40% (May 18, 2:00 PM)29.77 "Hg (May 15, 2:00 PM)
Average62 °F80%30.10 "Hg
* Reported May 12 11:00 AM — May 27 11:00 AM, Asuncion, Weather by CustomWeather, © 2016

Note: Actual official high and low records may vary slightly from our data, if they occured in-between our weather recording intervals... More about our weather records

Advertising

Asuncion Weather History for the Previous 24 Hours

Scroll right to see more
 ConditionsComfort  
Time TempWeatherWind HumidityBarometerVisibility
11:00 AM
Fri, May 27
64 °FMostly cloudy.6 mph88%30.12 "HgN/A
10:00 AM63 °FMostly cloudy.8 mph94%30.12 "HgN/A
9:30 AM63 °FOvercast.8 mph94%30.12 "Hg5 mi
9:00 AM63 °FLow clouds.7 mph94%30.12 "HgN/A
8:30 AM63 °FLow clouds.7 mph94%30.12 "HgN/A
8:00 AM63 °FLow clouds.8 mph94%30.09 "HgN/A
7:30 AM63 °FLow clouds.9 mph94%30.09 "HgN/A
7:00 AM63 °FLow clouds.8 mph94%30.09 "HgN/A
6:00 AM63 °FMostly cloudy.8 mph94%30.07 "HgN/A
5:00 AM63 °FDrizzle. Mostly cloudy.8 mph94%30.07 "HgN/A
4:00 AM63 °FDrizzle. Mostly cloudy.9 mph94%30.04 "Hg4 mi
3:00 AM63 °FMostly cloudy.9 mph94%30.04 "HgN/A
2:00 AM64 °FMostly cloudy.5 mph94%30.07 "Hg6 mi
1:00 AM63 °FDrizzle. Mostly cloudy.7 mph100%30.07 "Hg5 mi
12:00 AM63 °FMostly cloudy.No wind100%30.07 "Hg6 mi
11:00 PM
Thu, May 26
64 °FMostly cloudy.No wind94%30.09 "Hg6 mi
10:00 PM64 °FLight rain. Mostly cloudy.5 mph94%30.09 "Hg5 mi
9:00 PM64 °FLight rain. Mostly cloudy.6 mph94%30.07 "Hg4 mi
8:00 PM64 °FMostly cloudy.5 mph94%30.07 "HgN/A
7:00 PM64 °FPassing clouds.5 mph94%30.04 "HgN/A
6:00 PM66 °FPassing clouds.10 mph88%30.04 "HgN/A
5:00 PM66 °FPassing clouds.8 mph88%30.04 "Hg6 mi
4:00 PM64 °FFog.3 mph100%30.04 "Hg3 mi
3:00 PM64 °FRain. Mostly cloudy.9 mph94%30.04 "Hg6 mi
2:00 PM64 °FRain. More clouds than sun.2 mph94%30.04 "Hg6 mi
1:00 PM64 °FOvercast.No wind94%30.07 "Hg6 mi
12:00 PM64 °FMore clouds than sun.3 mph94%30.07 "Hg6 mi
Weather by CustomWeather, © 2016

See weather overviewHow to use our weather pages